Wind_Speed
14 15 15 14 12 10 11 11 10 9 9 7 7 8 9 7 5 4 4 5 7 10 10 9 11 11 10 10 10 10 10 12 11 9 8 8 9 11 10 10 13 14 14 13 13 13 14 13 13 14 16 17 18 19 20 21 21 20 20 19 19 18 18 18 18 18 19 19 19 19 20 20 20 21
15 15 15 15 14 12 11 11 11 10 10 9 9 9 10 9 7 5 4 4 7 7 5 6 12 13 11 10 10 10 10 11 11 8 7 8 9 10 9 9 11 12 12 12 13 14 13 13 14 15 17 18 19 21 22 23 23 22 21 20 19 18 17 16 16 17 18 19 20 21 20 20 20 20
16 16 16 16 15 14 13 13 12 11 12 12 11 11 10 10 10 8 5 4 6 7 7 6 9 11 11 10 10 10 9 11 11 8 7 9 10 11 10 10 10 10 11 12 12 13 13 14 15 17 18 19 21 22 23 23 23 22 22 21 19 18 17 16 16 17 17 18 19 20 19 19 19 19
16 17 17 16 16 15 14 14 13 13 13 13 12 12 12 11 11 10 8 6 6 7 8 7 6 8 10 9 9 10 9 9 10 9 9 10 12 11 10 10 10 10 11 11 12 12 13 14 16 17 19 20 21 21 22 22 21 20 20 20 19 18 18 18 18 17 17 17 17 17 17 17 17 18
17 17 18 17 17 16 15 14 14 14 14 14 13 13 13 12 12 12 11 9 7 8 8 8 7 8 10 9 10 10 10 9 10 10 10 10 11 10 10 10 11 11 10 11 12 12 13 15 16 18 18 18 19 19 19 19 18 18 18 19 19 19 19 18 18 17 17 16 16 15 16 16 16 17
19 18 19 19 18 18 17 16 15 15 15 15 15 14 14 13 13 13 13 10 9 9 9 8 8 8 9 9 10 11 11 10 10 10 11 11 10 10 10 11 12 13 13 13 14 14 15 16 17 17 16 16 16 16 16 17 17 17 17 18 18 19 19 18 18 18 18 17 17 17 18 19 19 20
21 20 20 20 20 19 18 18 17 16 16 16 16 15 15 14 14 14 14 12 10 9 9 9 9 9 9 9 10 11 11 10 11 11 12 11 11 11 11 11 12 13 13 13 14 15 16 16 16 15 15 14 15 16 17 17 17 17 17 18 18 19 19 19 19 19 19 20 21 21 21 22 22 22
23 22 22 22 22 21 20 19 18 17 17 17 16 16 16 15 14 14 14 13 11 10 9 10 11 10 10 10 10 10 11 11 11 12 12 12 12 12 12 11 11 12 12 12 14 15 15 15 13 13 13 13 14 15 16 16 16 16 17 17 17 17 18 19 20 21 21 21 22 23 23 23 22 22
24 24 24 23 23 23 22 21 20 19 19 18 17 17 16 16 15 14 14 14 12 11 10 10 11 10 10 11 10 11 11 11 11 12 12 13 13 13 13 12 11 13 13 14 15 15 15 13 11 10 12 13 14 14 14 14 15 15 15 15 15 16 18 19 20 21 21 20 20 20 20 21 20 20
25 26 26 25 25 25 24 23 22 21 21 20 18 18 17 17 16 15 14 14 14 13 11 11 11 11 10 11 11 12 12 12 11 12 13 13 13 13 13 12 11 11 12 13 13 14 14 11 9 10 12 13 13 12 12 13 14 14 14 13 14 15 16 17 18 18 18 18 17 17 17 18 19 19
27 27 27 26 26 27 27 25 24 23 23 22 20 19 18 17 17 16 15 15 15 14 13 12 12 12 12 12 12 12 13 13 12 12 12 12 12 13 13 13 12 10 10 11 11 12 12 10 10 13 13 12 11 10 11 12 12 10 10 11 12 13 14 15 17 18 18 18 17 16 16 17 18 19
28 28 28 27 27 28 28 28 26 25 24 23 21 21 19 18 18 17 16 16 15 15 14 14 13 12 13 13 13 12 13 14 14 13 12 12 11 11 12 14 14 13 11 10 9 8 9 10 12 12 12 12 11 10 12 13 11 9 9 10 11 12 14 15 17 19 19 19 19 18 18 18 18 19
28 29 28 27 28 29 30 31 29 27 26 25 23 22 22 20 20 18 17 17 16 15 15 15 14 13 13 13 13 13 14 14 13 12 11 11 10 10 10 11 12 12 10 7 6 5 6 9 11 10 10 10 9 10 11 9 8 8 9 9 11 14 16 17 17 19 20 21 21 22 21 20 20 20
27 28 29 28 28 30 31 33 33 30 29 28 25 24 24 23 22 20 19 18 17 16 15 15 15 13 13 14 14 14 14 13 11 10 10 10 9 8 8 8 9 9 7 6 6 7 8 10 10 8 8 8 7 8 5 4 4 6 8 12 16 19 19 18 18 18 19 20 22 23 23 22 21 20
27 28 29 28 28 30 33 34 35 34 32 31 28 25 25 26 25 22 21 19 18 17 16 15 15 14 14 14 14 14 14 13 12 10 10 10 8 8 9 8 7 8 7 5 6 8 9 9 9 8 8 7 6 6 5 5 9 12 14 18 20 19 17 15 14 14 14 15 16 18 19 19 18 18
28 28 29 28 28 30 33 35 36 36 35 33 32 30 27 28 28 26 23 21 20 18 17 16 15 15 15 14 14 14 13 13 12 11 11 10 9 9 10 9 6 6 5 5 6 9 9 8 9 8 7 6 6 6 8 11 14 15 16 17 16 14 13 12 12 12 12 13 14 15 16 17 18 18
30 29 29 29 29 28 32 35 36 37 38 36 35 34 31 30 30 29 27 24 22 19 18 18 17 16 15 14 14 13 12 12 12 12 12 11 10 10 10 9 7 5 5 5 7 9 8 8 8 7 6 6 6 7 10 13 14 14 15 15 13 12 12 13 13 13 14 14 14 15 16 17 18 19
31 32 31 31 30 29 31 34 34 34 38 39 37 37 35 32 31 32 31 28 26 23 19 17 18 17 15 15 14 13 13 13 12 12 12 11 11 11 9 8 7 6 7 6 6 8 8 7 7 7 6 6 6 8 10 12 13 14 14 13 13 13 13 13 13 14 15 15 16 16 16 17 18 18
32 33 33 32 31 29 30 35 35 32 33 37 40 39 36 31 29 30 32 31 29 27 23 20 18 17 16 16 14 13 14 14 12 11 10 9 8 8 7 7 8 10 10 10 7 7 8 6 7 7 6 7 7 8 10 12 15 15 13 12 13 14 13 13 13 14 14 15 16 16 16 16 17 17
32 33 34 33 33 30 30 34 38 36 31 32 37 38 34 30 27 27 30 31 30 28 26 23 20 18 17 17 17 16 15 14 12 10 8 7 7 6 5 7 10 10 12 14 11 8 6 5 6 7 7 7 9 9 11 13 13 11 11 13 15 14 13 13 14 15 15 15 15 15 15 15 15 17
34 35 35 33 32 31 31 35 40 40 34 29 30 32 30 29 28 26 26 29 31 30 27 26 24 23 20 17 18 19 18 16 14 11 10 10 9 8 7 7 9 8 10 14 12 7 5 5 6 8 8 8 9 11 10 9 8 9 12 15 15 13 13 14 15 15 16 16 14 14 14 14 15 17
34 35 37 35 34 33 34 37 40 42 39 31 27 29 29 28 29 27 25 26 29 31 30 28 27 26 24 19 17 20 22 19 16 14 12 12 11 11 10 9 9 9 8 10 11 7 4 5 5 7 9 9 10 10 8 6 8 10 12 13 13 13 14 15 15 16 16 16 14 14 14 14 15 17
33 35 38 40 40 38 35 37 41 43 42 37 31 30 30 29 29 29 27 25 30 34 33 31 28 27 25 22 19 21 22 21 18 16 14 13 12 11 11 10 9 8 7 8 10 6 3 4 4 6 8 8 8 8 7 8 9 9 10 12 13 14 14 15 15 15 16 16 15 15 15 15 15 16
32 36 39 41 45 45 40 37 40 43 44 42 36 32 31 29 29 29 27 27 32 36 35 33 31 27 25 22 20 21 22 21 20 19 16 14 13 11 11 10 10 9 6 9 10 6 4 3 5 7 7 7 8 9 9 9 9 9 11 11 11 12 13 14 14 15 15 15 15 15 16 15 15 16
33 37 38 38 44 48 46 41 41 43 45 44 39 34 32 31 29 29 28 28 31 34 33 30 27 24 22 20 18 19 22 23 22 20 18 17 14 13 12 12 12 9 7 11 9 6 4 3 6 7 8 8 10 11 10 9 10 10 10 10 11 12 12 13 14 14 14 14 14 14 14 13 13 15
35 35 35 36 41 47 50 48 45 45 46 45 41 37 35 33 32 32 30 29 30 32 30 27 24 22 22 20 19 19 20 21 21 20 20 19 17 15 14 13 11 8 7 9 8 5 4 4 6 7 8 9 10 11 11 10 10 9 8 9 11 12 12 13 13 12 11 12 13 13 13 14 15 17
36 33 33 35 38 44 51 53 50 47 46 46 45 41 38 36 36 35 32 31 32 31 29 27 26 25 24 22 23 22 20 20 21 21 21 20 18 16 14 12 10 8 6 6 6 6 6 5 6 7 8 9 10 10 10 10 9 8 9 11 12 12 13 12 12 12 11 11 12 12 13 15 16 16
35 31 31 33 36 41 49 54 53 50 48 48 49 46 43 42 41 38 35 35 35 31 29 29 28 27 27 26 25 25 23 21 22 22 20 20 19 17 14 12 11 10 9 7 7 7 7 6 7 8 9 9 10 10 10 11 10 10 10 11 12 12 13 12 12 12 12 11 11 12 13 13 14 15
37 31 30 31 33 38 46 51 54 53 51 50 51 49 46 45 44 40 38 38 35 31 29 30 29 28 29 28 26 26 25 22 22 22 20 19 19 16 14 12 11 11 11 10 9 8 8 7 8 9 9 10 11 11 11 12 12 11 11 12 13 14 13 13 13 12 11 11 12 12 12 14 15 16
42 36 32 30 29 33 43 49 52 53 51 50 51 50 48 47 45 42 39 38 36 32 30 31 30 29 29 28 25 25 24 23 24 24 22 19 19 17 14 13 12 12 12 11 10 9 8 9 10 11 11 11 12 13 12 12 13 13 12 12 14 14 13 12 12 11 11 12 11 11 13 15 17 17
46 40 37 34 30 29 38 47 51 52 51 50 49 47 46 46 44 42 41 41 40 36 33 32 31 28 28 27 25 25 25 24 25 26 22 20 18 17 16 15 13 13 13 13 12 11 9 9 11 12 12 12 13 13 13 13 14 14 14 13 14 14 13 12 12 12 11 10 10 12 14 16 17 16
47 39 37 35 29 28 37 46 48 48 49 50 49 47 45 44 42 42 42 41 40 38 34 32 31 28 29 29 27 27 27 25 25 26 23 20 18 17 17 16 14 13 13 12 12 12 12 12 13 13 13 14 14 14 13 13 14 15 14 14 14 14 13 13 12 11 10 10 12 14 16 16 16 16
43 38 35 31 26 30 39 41 39 39 42 44 47 50 49 45 42 43 43 41 39 38 35 34 34 32 31 30 28 28 27 25 25 25 23 21 19 18 18 17 15 13 12 11 11 12 13 14 14 15 15 15 16 16 14 14 15 15 14 13 13 13 12 12 12 11 10 11 13 15 16 16 16 16
41 36 34 31 32 37 39 34 30 32 35 37 39 44 47 45 41 42 41 39 38 37 35 36 37 35 32 30 29 28 26 25 24 23 23 22 20 18 17 16 14 13 12 11 11 10 10 11 13 14 15 16 18 20 19 19 17 15 13 12 12 12 12 12 12 11 11 11 13 15 16 16 16 16
40 36 33 33 35 38 37 34 34 34 36 37 38 40 42 41 39 38 36 35 36 36 34 35 36 35 33 32 31 29 27 26 24 23 23 22 19 18 17 15 14 13 13 13 12 10 9 10 11 12 14 16 18 21 24 26 23 17 13 12 12 11 12 12 12 12 12 13 13 15 16 17 17 16
38 38 37 34 33 33 34 37 40 40 39 40 41 39 38 36 35 36 35 36 38 38 36 35 36 35 34 33 32 30 28 27 24 23 22 21 19 18 18 16 15 14 13 13 12 10 10 11 12 12 14 14 13 13 17 22 24 20 14 11 11 11 12 12 13 13 13 13 13 14 15 17 18 17
35 37 38 37 36 37 38 40 41 42 42 43 42 41 40 38 37 38 39 39 39 39 37 36 36 35 34 33 32 29 28 27 24 22 22 21 20 19 18 17 16 15 14 13 11 10 10 11 12 13 13 10 8 8 8 10 18 21 16 10 10 11 12 12 13 13 13 13 13 14 16 18 19 19
36 35 37 38 39 40 42 42 40 39 41 43 43 43 43 42 41 41 40 39 38 37 37 37 37 36 35 34 32 29 27 25 24 22 22 22 20 19 18 16 15 15 15 14 12 11 11 11 12 14 14 10 7 8 6 4 12 19 19 14 11 12 12 12 13 13 12 13 13 15 16 18 20 21
39 36 36 38 40 41 42 43 41 39 40 42 43 43 42 40 39 39 38 38 39 39 38 37 37 37 35 33 31 29 27 25 24 23 22 22 22 20 18 16 15 15 14 13 12 12 12 13 14 14 15 14 11 10 8 7 9 11 13 15 16 16 14 13 12 13 13 13 14 16 18 19 20 20
38 38 36 35 38 41 42 41 40 39 39 39 39 39 38 37 37 38 38 39 41 40 39 38 37 36 34 32 30 28 26 25 24 23 21 21 22 21 18 16 15 15 13 12 12 12 12 14 15 16 16 15 12 9 10 12 15 15 16 18 19 17 15 14 13 13 13 13 15 17 19 19 19 18
31 34 34 32 32 34 37 39 39 36 35 36 36 37 37 38 38 39 40 41 41 39 37 37 36 34 31 31 30 27 24 23 23 22 20 20 20 19 17 16 15 14 13 12 12 12 12 12 14 17 17 14 10 9 11 12 14 15 16 15 14 13 14 15 15 14 14 13 14 16 18 18 18 18
24 29 31 29 28 29 33 36 36 34 34 34 35 38 39 40 41 41 41 40 39 37 35 34 33 31 28 28 28 26 23 22 21 20 20 20 19 17 16 16 15 14 13 13 12 11 11 10 10 11 12 12 11 11 13 13 13 14 13 12 12 13 14 14 14 15 15 14 13 15 17 17 15 15
22 25 26 24 23 23 25 27 30 33 35 35 37 39 40 40 41 42 41 39 37 36 34 32 31 29 27 25 25 25 22 21 21 22 21 19 18 16 16 17 16 14 13 13 11 11 11 10 9 8 9 12 14 14 15 15 15 15 14 13 13 11 10 12 16 18 17 15 15 17 17 15 13 14
22 23 22 20 19 20 22 25 30 35 37 38 39 40 39 39 39 39 39 37 35 33 31 30 29 27 26 24 23 22 22 21 21 21 18 17 16 16 15 15 15 14 13 12 12 11 11 11 10 10 12 14 15 16 16 16 15 15 14 13 12 12 12 13 14 15 16 16 17 18 16 15 15 17
12 13 15 18 22 25 28 30 32 35 36 37 37 38 39 39 37 36 36 35 34 31 29 28 27 25 24 23 22 22 22 21 19 17 16 16 17 16 15 13 14 14 14 13 12 11 11 11 12 13 14 15 15 15 15 15 15 15 15 14 14 14 13 11 10 11 12 14 16 16 14 13 14 16
Wind_Direction
211 210 209 214 222 214 208 215 212 210 218 216 213 212 213 222 232 221 203 205 214 212 205 184 174 183 194 198 207 209 210 223 230 231 230 226 230 239 244 241 238 241 246 253 261 267 269 271 278 286 290 291 292 292 293 294 295 295 296 296 294 290 284 279 277 278 281 283 284 284 283 280 278 277
211 211 209 207 215 216 208 212 214 208 208 214 215 214 214 216 227 239 226 217 224 230 243 200 174 177 188 196 200 198 203 217 218 215 222 221 227 237 244 247 242 240 246 252 258 262 263 267 276 284 285 286 287 288 290 291 293 295 296 297 296 294 290 287 286 286 287 288 287 286 285 283 281 280
212 211 211 207 208 213 209 209 213 209 205 209 213 214 215 212 216 232 239 228 221 227 245 225 173 168 183 196 198 194 199 214 213 208 211 216 227 238 242 245 245 241 244 250 253 256 260 267 275 280 281 282 283 284 286 289 291 292 293 295 294 292 292 291 292 293 292 292 290 287 284 282 281 280
210 212 212 208 206 207 208 208 209 209 206 208 212 213 213 213 213 217 227 238 230 222 232 231 199 187 190 191 198 197 194 209 216 206 203 216 227 232 236 243 246 245 246 248 250 255 263 270 276 279 280 281 282 283 286 288 290 291 291 291 291 290 291 293 295 297 297 295 293 291 288 286 282 280
208 211 211 210 206 204 205 206 207 208 205 205 211 213 211 212 212 209 217 230 229 221 225 233 230 209 191 189 199 202 197 203 214 210 207 218 223 223 227 236 244 247 248 251 254 259 270 278 281 282 281 281 283 285 288 290 291 290 288 287 287 288 289 292 294 297 298 296 295 293 292 292 289 286
206 209 210 209 206 205 206 206 207 208 206 205 208 211 211 212 212 208 211 221 229 226 219 228 238 215 197 203 201 202 209 207 204 208 212 217 222 225 231 238 244 246 248 254 258 263 275 283 283 282 281 281 284 287 290 292 292 289 286 285 285 286 288 290 291 292 293 293 293 294 294 293 293 293
206 208 209 208 206 205 206 207 209 209 208 207 208 210 210 212 214 210 209 215 227 232 219 217 228 215 206 217 208 203 215 213 205 210 215 218 224 230 238 243 250 251 250 252 257 265 278 285 283 280 281 283 286 290 291 290 289 288 287 286 286 287 288 289 289 289 290 291 292 294 295 295 294 294
207 207 207 207 206 204 205 206 208 210 210 208 208 210 209 210 214 211 209 213 222 233 228 217 224 223 214 217 216 208 212 214 212 214 218 223 228 234 241 246 251 254 252 253 259 267 281 290 288 283 284 287 290 291 291 291 291 290 290 290 289 288 288 289 290 292 293 293 293 294 294 295 295 294
209 208 208 207 205 204 205 205 206 207 209 209 209 208 207 207 211 212 210 211 214 227 235 224 222 228 222 218 218 213 211 215 216 218 223 227 230 235 242 248 251 251 253 258 261 268 281 290 286 282 291 296 295 294 294 294 294 293 292 292 290 289 289 290 291 294 296 296 295 294 294 294 295 295
212 210 209 207 205 204 204 205 205 205 205 208 209 208 207 204 205 210 210 209 211 219 230 230 223 222 222 221 220 215 215 219 218 220 225 227 231 237 241 248 252 248 249 252 254 264 275 278 274 284 297 299 296 299 301 300 299 297 293 290 288 289 291 293 295 297 298 300 299 298 295 295 296 297
215 213 210 209 207 206 205 205 204 203 202 205 208 208 207 204 203 207 209 209 211 214 219 226 226 223 221 222 224 220 218 224 227 225 226 229 235 236 234 239 243 245 252 256 261 264 260 263 281 291 294 292 293 301 305 306 309 302 290 288 289 292 296 300 303 303 301 301 300 299 297 295 296 298
218 217 214 213 211 208 207 206 204 202 200 200 203 206 205 205 203 205 207 207 210 214 217 220 223 224 222 221 225 220 214 221 227 226 228 237 240 235 236 240 240 243 252 264 278 272 252 265 287 288 283 281 284 293 301 304 303 286 275 282 287 292 298 301 301 301 300 299 298 296 295 293 293 294
218 221 219 217 215 213 210 209 206 204 202 199 199 200 201 203 204 204 206 206 208 212 215 218 220 221 222 220 219 217 214 219 226 227 228 238 241 235 240 246 241 243 253 269 285 283 268 280 289 284 279 280 283 293 298 295 281 264 264 281 291 296 299 297 295 294 293 294 295 295 295 294 292 291
216 221 224 222 219 217 215 213 210 207 205 202 200 199 199 200 200 203 205 206 207 210 213 217 216 216 221 220 218 222 224 222 226 227 224 232 240 235 238 242 232 232 247 264 272 276 280 284 284 282 281 281 287 294 277 227 250 280 295 306 308 306 305 302 298 295 292 291 293 294 296 298 296 294
214 219 225 225 222 220 217 215 213 210 208 206 203 202 201 201 200 201 204 205 204 207 212 214 214 216 221 223 224 228 230 226 225 224 221 226 233 235 244 251 232 221 232 246 261 272 276 274 273 275 276 278 285 279 246 250 286 299 303 308 309 308 310 312 311 310 307 303 301 302 303 305 305 303
213 215 221 224 223 220 217 216 214 212 211 210 208 206 204 205 205 204 205 205 205 207 211 213 215 218 222 225 227 227 227 225 222 220 220 222 227 237 250 256 245 228 224 233 259 273 275 268 268 272 274 285 293 280 274 288 293 294 300 308 311 311 315 321 320 317 316 313 311 310 308 307 307 306
212 212 215 220 221 219 216 213 211 211 212 212 213 212 210 209 209 210 209 208 208 209 212 215 217 218 220 224 227 226 224 223 219 214 215 219 227 238 248 252 249 225 202 221 258 271 272 272 277 285 292 297 298 286 284 290 293 297 308 316 320 321 317 315 315 312 310 308 306 305 305 304 304 303
212 211 212 216 217 217 214 209 204 205 209 211 212 214 213 212 212 213 214 213 213 213 215 217 218 218 219 223 226 224 219 217 213 208 212 222 231 236 240 241 238 229 218 224 247 262 271 280 284 294 307 306 298 287 285 292 299 303 307 311 321 328 324 318 317 311 307 304 302 301 301 301 301 302
215 213 212 213 214 212 210 206 201 199 202 207 210 212 212 210 210 212 215 216 217 218 219 220 220 220 221 223 224 221 212 208 206 204 210 220 224 227 228 224 235 242 226 207 215 249 266 282 292 300 312 310 301 293 290 293 295 295 296 306 318 324 324 325 324 319 314 309 304 301 299 297 298 299
220 218 213 211 213 211 208 206 204 201 197 200 207 209 208 207 208 211 214 216 217 218 220 221 222 222 223 222 218 214 207 201 197 194 195 196 192 200 215 232 250 244 207 195 211 241 254 278 303 307 311 309 301 294 289 285 281 282 294 308 313 316 318 319 319 321 321 317 310 305 301 298 299 300
222 224 219 212 211 211 209 207 205 204 199 195 200 204 202 203 207 209 213 216 217 217 218 220 221 222 223 222 215 209 203 197 190 186 189 194 194 197 206 232 255 240 192 189 201 215 239 287 310 307 306 307 297 290 287 281 276 287 301 306 309 312 315 312 310 314 319 318 314 311 307 302 301 303
221 225 225 219 212 210 210 209 206 205 201 195 195 200 199 200 204 205 206 209 211 212 214 217 219 221 225 227 220 212 209 206 198 189 193 204 207 209 217 230 243 241 214 193 187 190 239 287 303 303 303 301 290 285 288 289 288 293 300 306 309 307 306 305 304 307 311 311 308 307 306 304 301 300
222 225 227 224 219 214 211 209 207 205 203 197 195 199 199 199 202 201 198 197 199 202 207 212 215 217 221 223 218 213 212 212 208 199 200 213 218 222 233 230 224 235 226 190 183 195 240 274 292 297 298 297 291 286 287 286 287 291 297 302 301 298 297 298 299 303 306 305 302 298 298 297 294 291
226 227 226 225 222 218 213 210 207 207 205 201 198 198 199 199 199 196 193 193 195 197 201 206 210 212 213 211 209 210 212 213 211 206 206 213 216 218 224 223 225 236 211 167 172 193 220 260 288 287 284 288 287 284 284 285 291 295 294 293 292 294 298 299 300 303 304 304 302 297 295 292 287 282
226 226 223 223 223 218 213 211 209 207 207 206 202 199 200 200 197 192 190 191 194 195 196 197 200 200 200 199 199 205 213 214 211 207 206 210 210 210 214 221 231 230 182 159 165 175 192 253 280 276 272 273 274 279 286 289 289 289 288 289 292 294 297 296 295 296 299 303 305 303 301 295 286 281
225 225 222 223 223 218 213 212 212 209 207 206 204 203 202 200 196 192 190 187 186 188 188 187 188 189 191 195 199 203 207 209 209 207 206 206 204 204 210 221 232 221 174 169 188 194 196 232 257 261 265 269 273 280 286 285 284 287 290 292 292 290 290 290 290 293 297 301 303 303 300 294 289 289
228 226 224 224 224 220 214 213 212 209 205 205 206 205 203 199 195 191 188 183 180 182 183 183 186 188 189 195 202 202 198 200 204 205 204 203 200 201 205 211 219 217 194 188 211 217 204 207 233 248 256 265 273 278 281 282 286 292 294 293 291 289 289 288 288 291 293 294 295 297 296 294 295 297
234 232 229 227 226 221 214 213 213 209 205 205 206 204 202 198 193 189 186 183 181 181 182 183 186 188 189 193 198 201 201 203 202 199 200 200 197 196 199 198 201 208 210 209 216 214 202 205 229 242 245 254 265 271 278 284 289 292 292 292 291 290 289 288 286 285 286 289 293 295 295 297 301 302
237 238 237 235 233 225 216 213 212 209 207 207 206 203 201 196 190 188 186 183 182 182 183 184 186 188 190 192 194 197 201 201 195 192 195 196 193 193 197 199 202 209 214 217 221 218 210 214 229 240 243 248 256 265 273 280 283 284 287 289 289 288 285 283 282 281 283 287 290 292 295 298 299 299
235 237 240 246 245 231 217 212 210 207 207 208 205 202 199 194 190 188 185 182 183 185 184 185 187 188 190 191 191 190 190 189 186 187 189 188 187 190 193 196 204 213 216 220 224 223 218 218 225 236 242 246 253 260 266 273 277 279 281 281 282 282 280 279 281 282 285 288 290 294 298 298 296 294
233 234 237 245 251 236 219 214 211 208 207 205 201 199 196 193 192 190 188 185 186 187 185 184 184 185 184 184 181 177 176 179 182 184 185 185 186 190 194 198 207 216 219 221 221 219 219 221 223 228 236 245 253 257 261 267 271 274 276 275 275 277 278 281 283 282 284 291 297 298 297 296 294 292
233 234 233 237 241 229 214 209 206 203 202 200 197 195 195 196 195 193 190 188 187 187 184 180 178 178 177 177 173 169 171 176 180 182 185 187 189 193 198 203 210 215 218 222 221 216 215 218 223 229 235 244 251 256 260 264 263 264 268 269 268 270 275 280 284 286 291 297 297 297 296 293 292 292
228 229 228 226 223 213 207 205 200 197 197 196 195 194 194 196 196 192 189 187 186 184 180 175 173 173 172 171 168 167 169 176 180 183 187 191 195 201 205 211 216 216 218 224 224 217 209 210 221 232 236 240 247 250 255 260 260 259 260 261 265 270 276 282 285 288 295 298 295 294 294 292 291 293
223 223 222 217 212 207 203 201 199 197 194 193 194 195 195 195 194 192 190 186 182 179 175 172 172 171 168 165 163 165 171 178 181 185 190 195 201 208 213 219 222 220 222 230 231 224 210 203 214 228 235 240 246 246 245 247 250 253 255 256 262 270 276 282 287 288 292 293 292 292 293 292 293 294
218 221 220 216 214 208 201 198 199 197 194 193 194 196 197 197 194 191 188 183 177 174 172 171 170 168 166 165 163 166 173 179 180 183 189 196 204 211 216 222 224 220 225 231 227 223 217 209 214 228 236 241 245 244 243 241 239 239 248 253 257 268 277 282 286 288 288 287 287 289 290 293 295 296
215 218 219 218 215 208 201 200 200 197 194 194 193 193 195 195 192 189 185 180 177 175 172 168 166 166 167 166 165 167 173 176 176 181 187 194 204 211 215 222 224 223 230 236 227 218 218 219 223 233 242 246 248 249 249 242 232 228 238 251 256 264 275 282 283 283 284 285 287 291 292 294 296 298
218 218 218 219 216 208 204 205 203 198 195 193 191 190 190 189 188 187 184 180 176 173 169 164 162 165 167 165 164 169 173 174 176 182 188 194 204 212 216 221 223 224 231 237 232 223 223 226 229 236 246 254 257 263 265 234 213 213 222 245 264 268 273 279 280 279 280 284 289 295 298 297 298 299
227 222 218 218 217 211 207 206 205 200 196 192 188 188 188 186 184 182 179 175 171 166 162 161 163 165 166 165 166 170 173 175 181 189 193 196 203 212 217 218 220 222 224 226 226 225 228 230 231 236 243 249 257 271 279 232 204 208 212 225 252 268 270 272 276 278 283 290 296 300 301 299 298 298
236 233 226 221 217 213 210 207 205 201 196 192 188 186 185 182 177 174 170 166 162 160 160 162 164 165 166 166 167 171 174 177 185 194 200 201 204 212 216 215 217 223 225 222 220 219 221 225 229 234 242 247 254 273 291 291 273 253 236 239 254 261 259 262 272 281 286 292 297 302 303 301 299 301
240 243 241 232 223 216 211 206 203 200 195 191 187 182 177 171 166 162 160 158 158 160 163 164 165 166 168 169 168 171 176 183 189 195 201 206 212 216 214 209 212 221 226 225 222 219 221 226 228 232 239 245 255 277 293 291 286 280 268 261 259 255 249 251 261 273 284 291 297 301 304 305 306 308
243 247 250 247 237 226 213 204 199 195 190 186 180 172 166 161 158 156 155 156 158 160 162 164 165 167 169 171 171 173 178 186 191 196 201 210 217 217 210 207 212 219 224 226 225 223 228 232 230 229 232 238 255 280 284 278 272 269 267 266 266 263 260 255 251 259 272 283 291 297 301 305 307 308
247 246 251 254 248 233 215 201 190 182 177 174 167 161 158 156 155 154 154 156 159 161 161 163 166 169 171 171 172 177 183 185 190 196 205 214 218 212 203 205 213 217 220 225 226 227 231 228 219 218 227 235 248 260 263 262 265 270 274 278 279 277 270 258 253 260 268 272 281 293 300 303 304 307
256 249 250 251 242 223 204 187 174 166 164 161 156 153 152 151 151 152 155 158 161 163 164 165 166 169 172 172 175 181 185 186 192 202 209 215 216 210 204 206 210 213 220 225 226 229 231 221 206 209 230 239 242 246 251 257 264 270 273 277 282 286 277 262 261 265 263 262 274 287 289 286 287 296
263 250 238 225 208 192 178 168 163 160 158 155 152 150 149 148 150 154 157 159 160 162 166 167 166 167 171 174 176 181 187 194 204 210 210 208 209 210 209 205 202 207 220 227 223 222 224 224 223 228 235 238 239 241 248 257 264 270 275 280 287 292 285 273 267 262 254 258 275 287 284 275 275 285
264 239 212 192 180 172 167 163 160 156 151 148 146 145 145 147 151 154 157 160 160 160 163 166 165 166 171 174 177 184 192 200 208 210 205 202 206 209 211 206 199 202 213 220 220 218 219 225 232 234 235 239 244 247 252 259 264 269 275 279 278 277 277 279 280 275 269 275 289 296 292 284 286 292
Height
839 840 841 841 841 841 842 842 842 843 844 844 845 846 846 848 848 848 849 848 846 845 845 846 849 850 851 852 853 853 854 854 855 855 856 856 856 856 856 856 857 857 857 858 858 858 858 858 858 857 856 855 855 854 853 853 852 852 851 851 851 851 851 850 850 850 850 850 850 850 850 850 850 850
837 837 838 839 840 840 841 841 841 842 843 844 844 846 846 846 847 847 848 848 845 845 845 845 847 848 849 851 851 852 852 852 853 855 855 855 854 854 855 855 856 856 856 856 857 857 857 857 856 855 855 854 853 852 852 851 851 850 850 849 849 849 849 849 849 848 848 848 848 847 847 848 848 848
835 835 836 837 838 839 839 840 840 841 842 843 843 844 845 846 846 846 847 848 846 846 845 845 846 847 848 850 850 851 851 851 852 854 854 854 853 853 854 855 855 855 855 855 855 856 856 855 855 854 853 852 852 851 850 850 849 849 848 848 848 847 847 847 847 846 846 846 846 845 845 845 846 845
832 833 834 835 836 837 837 838 839 839 840 841 842 843 844 844 846 846 847 847 846 846 846 845 846 847 847 848 849 850 850 851 851 852 853 853 853 853 853 853 854 854 854 854 854 854 854 854 853 852 852 851 850 849 848 848 847 847 847 846 846 846 845 845 845 844 844 844 843 843 843 843 843 843
829 831 832 833 834 835 835 836 837 837 838 839 840 842 842 843 844 845 846 846 845 845 846 845 845 846 847 847 848 849 849 850 850 851 852 852 852 852 852 852 853 853 854 853 853 853 853 852 851 851 850 849 848 848 847 846 846 846 845 845 845 844 844 843 843 843 842 842 841 841 841 841 841 842
826 828 829 830 832 832 833 834 835 835 836 837 839 840 841 842 842 843 844 845 844 844 845 846 846 845 846 847 847 848 848 848 849 850 851 851 851 851 851 852 851 851 852 852 851 851 851 850 850 849 848 847 847 846 845 845 845 844 844 843 843 843 842 841 841 841 840 840 840 839 839 839 839 839
823 824 826 827 828 830 830 831 832 833 834 835 836 837 839 840 840 841 842 843 843 843 843 845 846 845 846 846 846 847 847 847 848 848 849 850 850 850 850 850 850 849 850 850 850 850 849 849 848 847 846 846 845 845 844 844 843 843 842 842 842 841 840 840 839 839 839 838 838 837 837 837 836 836
819 821 822 823 825 826 827 828 830 831 832 833 834 835 836 837 838 839 840 841 842 842 842 843 844 844 845 845 846 846 846 847 847 847 848 848 848 849 849 849 848 848 848 848 848 848 848 847 846 845 845 844 844 843 843 843 842 841 841 840 840 839 839 838 837 837 836 836 836 835 834 834 834 834
816 817 818 819 821 822 823 825 826 828 829 830 831 833 834 835 836 837 839 840 841 841 841 842 842 843 843 844 845 845 845 846 846 846 846 846 847 847 847 847 847 846 846 846 846 846 846 845 844 844 843 843 842 842 841 841 840 840 839 838 838 838 837 837 836 835 834 834 833 833 832 832 831 831
812 813 814 815 816 817 818 820 822 824 826 827 829 830 831 833 834 835 836 838 839 839 840 840 841 842 842 843 844 844 844 845 844 844 845 845 845 845 845 845 845 845 844 844 844 844 843 843 843 842 842 841 841 840 840 839 839 838 837 836 836 836 835 835 834 833 832 832 831 831 830 830 830 829
809 809 810 811 812 813 814 815 817 819 822 824 826 827 829 830 831 833 834 835 836 837 838 838 839 840 841 841 842 842 843 843 843 843 843 843 843 843 843 843 843 843 844 843 842 842 842 841 841 840 840 839 839 838 838 838 837 836 835 835 835 834 834 833 832 832 831 830 830 829 829 829 828 828
804 805 806 807 808 809 810 811 813 815 817 819 822 824 826 827 829 830 831 832 833 834 835 836 836 837 838 839 839 840 841 841 841 841 841 841 841 841 841 842 842 842 842 842 841 840 840 840 840 838 837 837 837 837 836 836 835 834 834 834 833 833 832 832 831 830 829 829 828 828 827 827 827 826
800 802 803 803 804 805 805 807 809 810 812 814 817 819 822 824 825 826 828 829 830 831 832 832 833 834 835 836 837 837 837 837 838 838 839 839 839 839 839 840 840 841 841 840 839 839 839 839 839 838 837 836 835 835 834 834 834 833 833 833 832 831 831 830 829 829 828 827 826 826 826 825 825 825
796 798 799 799 800 801 802 803 805 807 809 810 812 815 817 819 821 823 824 825 826 827 828 829 830 830 831 832 833 834 834 834 835 836 836 837 837 838 838 838 839 839 839 839 838 838 839 838 838 837 836 835 835 834 833 832 832 831 831 831 830 830 829 828 827 827 826 825 824 824 823 823 823 823
791 793 795 796 796 797 798 799 801 803 806 807 809 811 812 814 816 818 820 821 822 823 824 825 825 826 827 828 829 830 831 832 832 833 834 834 835 836 836 836 837 837 837 838 837 837 837 837 836 835 834 833 833 832 831 831 831 830 830 830 829 828 827 826 825 825 824 824 823 822 822 821 821 820
786 788 790 791 792 792 792 794 797 799 802 804 806 807 808 810 812 813 815 816 817 819 820 821 821 822 822 824 825 826 827 828 830 831 831 832 833 834 834 834 835 835 835 836 836 836 835 835 834 833 832 831 831 830 830 830 830 829 829 828 827 826 826 825 824 823 823 822 821 821 820 820 819 819
780 781 783 785 786 786 787 789 792 795 798 800 802 804 805 806 807 809 811 813 814 815 816 817 817 818 819 820 821 823 824 825 827 828 829 829 830 831 832 832 833 833 833 834 834 834 834 833 832 830 829 829 829 828 828 828 828 827 827 827 826 825 825 824 823 822 821 820 820 819 819 818 818 817
773 775 776 777 779 780 781 783 787 789 792 795 798 800 801 802 803 805 807 809 811 812 813 813 814 815 816 817 818 820 821 822 823 824 825 827 827 828 829 830 831 831 831 832 833 832 832 831 830 828 827 827 827 827 826 826 826 825 825 825 824 824 823 822 821 820 819 818 818 817 817 817 816 816
768 769 770 771 773 775 776 777 780 784 787 790 792 794 796 798 799 801 802 805 807 809 810 811 812 813 814 815 816 817 819 819 820 821 822 824 825 826 827 828 828 828 828 830 831 830 829 829 828 826 825 825 826 826 825 825 824 823 823 823 823 822 822 821 820 818 817 816 816 815 815 815 814 814
764 763 764 765 767 770 771 771 774 778 782 784 787 789 791 793 795 796 798 800 803 805 807 808 810 811 811 812 813 815 817 818 818 819 820 822 823 824 825 826 826 825 825 826 828 828 827 827 826 825 824 824 824 824 824 823 822 822 821 821 821 820 820 819 818 817 816 815 814 813 813 813 812 812
758 758 759 760 762 764 765 765 768 772 777 780 782 784 787 789 790 792 794 796 799 802 804 805 807 808 809 809 811 812 814 816 817 817 818 819 820 822 823 823 823 822 822 823 825 825 825 825 824 823 823 823 823 823 822 821 820 820 820 819 819 818 818 817 816 815 814 813 812 812 811 811 811 810
751 752 754 756 756 757 758 759 761 765 770 774 777 779 781 783 784 786 789 791 794 797 800 802 804 805 806 807 808 810 812 814 815 816 816 817 818 818 819 819 820 821 820 821 822 823 823 823 823 822 822 821 821 821 821 820 820 819 818 817 817 817 816 815 814 813 812 811 811 810 809 809 808 808
744 745 748 750 749 750 751 752 754 758 763 766 769 771 773 775 777 779 783 785 787 791 795 797 799 802 803 805 806 807 809 811 813 814 814 815 815 815 815 816 818 819 818 818 819 821 821 821 822 822 821 820 819 819 820 820 819 818 817 816 816 815 814 813 812 811 810 809 809 808 807 807 806 806
738 740 741 741 741 743 746 747 749 752 755 758 761 764 766 768 770 774 778 780 781 785 789 792 795 798 800 802 803 804 807 809 810 811 812 813 813 813 814 815 816 816 816 816 818 819 819 819 820 821 820 819 819 818 818 818 817 817 816 815 814 814 813 812 810 809 808 807 807 806 805 805 805 804
731 732 733 732 733 737 741 742 743 746 749 752 756 758 760 763 766 770 774 775 777 782 785 788 791 794 796 799 800 801 803 805 807 809 810 810 810 811 813 814 814 814 814 815 816 817 817 818 819 819 819 819 818 817 817 816 816 815 814 813 813 812 812 810 809 808 806 805 805 804 803 803 803 803
724 724 724 725 727 730 734 736 737 738 742 747 751 753 755 758 761 766 769 771 774 778 781 784 787 790 792 794 797 799 800 802 804 806 807 808 808 808 811 812 812 813 813 813 814 815 815 816 817 818 818 818 817 816 815 815 814 813 812 812 812 811 810 809 807 806 805 804 803 803 802 802 801 800
718 718 718 721 722 724 728 730 731 732 736 740 745 748 750 752 756 760 764 766 768 772 775 778 781 784 786 788 791 794 797 799 801 803 805 806 806 806 808 810 811 812 812 812 813 813 813 814 815 817 817 817 816 815 814 813 812 811 811 810 810 809 808 807 805 804 803 802 802 801 801 800 799 797
716 715 716 717 717 718 721 724 725 727 729 732 736 740 743 745 749 753 756 758 762 766 769 772 775 778 780 782 784 788 792 796 798 801 803 804 804 805 806 807 809 810 811 811 812 811 811 811 813 815 816 816 815 814 813 812 811 810 809 809 808 808 806 805 804 803 801 801 800 800 799 798 797 796
714 715 716 717 716 715 717 719 720 721 723 727 730 734 737 740 744 747 749 752 757 761 764 766 769 772 774 777 779 783 788 793 796 799 802 803 803 803 804 806 807 808 809 810 810 810 809 809 812 813 814 814 814 813 812 811 809 809 808 807 807 806 805 803 802 801 800 799 798 798 797 797 796 794
710 712 715 716 715 715 715 716 717 718 721 725 729 732 734 737 740 742 744 747 751 755 758 761 765 768 770 774 776 779 784 789 793 797 800 800 801 802 803 804 806 807 807 807 808 808 807 807 810 812 812 812 812 811 811 810 808 807 807 806 805 804 802 801 800 799 798 797 796 796 796 795 794 792
706 709 711 711 712 714 714 714 714 715 718 722 726 729 732 734 735 736 738 740 743 747 751 755 760 765 769 771 772 774 779 785 791 794 797 798 799 800 801 803 804 804 804 804 804 804 804 805 808 809 810 811 810 809 809 808 807 805 805 804 803 801 800 799 798 797 796 795 794 794 794 793 792 790
703 706 706 706 708 711 711 709 707 709 711 713 717 722 727 729 731 731 733 735 737 741 745 750 755 760 764 767 769 771 776 783 788 791 794 796 797 798 800 801 801 801 801 801 801 801 801 802 805 807 808 808 808 808 807 806 805 804 802 801 800 799 798 797 795 794 794 793 793 792 792 791 789 788
699 700 700 702 704 705 706 705 704 704 705 706 708 711 715 719 722 723 724 726 729 733 738 744 750 755 760 764 766 768 774 781 785 788 791 794 796 797 798 798 798 798 798 798 798 797 797 799 802 804 805 806 806 806 805 804 802 801 800 798 798 796 796 795 794 793 792 792 791 790 789 788 787 786
692 692 693 695 695 695 697 700 701 702 702 704 705 707 708 711 714 717 718 720 723 728 733 738 745 751 756 760 762 766 772 779 783 786 789 792 794 795 796 795 795 795 795 795 795 795 795 796 799 801 803 803 803 803 802 801 799 798 797 796 795 794 794 793 792 791 791 790 789 788 786 785 785 784
684 684 685 685 685 686 688 691 694 696 697 699 701 704 706 708 710 713 717 719 723 726 730 735 741 747 752 756 757 762 770 776 779 783 786 789 792 793 793 793 792 792 793 793 793 793 793 795 797 799 800 800 800 798 796 795 795 795 794 793 792 792 792 791 791 790 789 788 787 786 784 783 782 781
673 674 675 675 677 680 681 681 682 684 686 689 692 696 700 703 706 710 714 717 720 723 727 731 737 743 749 752 753 758 766 772 775 779 783 787 789 790 790 790 789 789 790 790 789 790 791 792 795 796 797 796 795 792 789 788 790 792 791 790 790 790 790 790 789 788 787 786 785 783 782 780 779 779
664 664 665 666 667 669 669 670 672 672 673 676 681 686 690 695 700 705 709 713 716 720 723 728 733 740 745 747 749 756 763 767 771 776 780 783 785 786 786 786 786 786 787 787 787 787 788 790 792 793 794 793 791 788 785 784 786 788 788 788 788 788 787 787 787 785 784 783 782 781 780 778 777 776
659 657 655 654 655 656 658 660 663 665 665 668 672 676 681 686 692 698 703 708 712 717 722 727 732 737 741 742 746 752 758 763 768 772 776 779 781 782 782 782 782 783 784 784 785 785 786 788 789 791 792 791 789 786 784 783 784 785 786 786 786 785 785 785 784 783 782 781 780 779 778 777 775 774
654 652 648 646 646 647 649 651 654 657 659 661 664 668 673 680 686 692 698 704 708 713 719 725 730 734 737 739 743 748 753 759 764 768 771 774 776 777 778 778 779 780 780 780 781 782 783 785 787 788 789 789 788 786 785 784 784 784 784 784 783 782 782 782 781 780 779 779 778 777 775 774 773 771
649 648 645 643 641 641 642 644 646 651 655 659 661 664 669 675 682 688 694 700 705 710 717 722 726 731 735 737 741 745 750 755 760 763 767 769 770 772 773 774 775 777 777 777 778 779 780 781 783 785 787 787 787 786 786 785 784 783 782 781 779 778 779 779 779 778 778 777 776 775 773 771 770 769
645 645 644 643 642 640 639 639 640 645 652 657 661 664 668 673 678 684 690 697 703 710 716 720 724 729 732 734 737 742 748 753 756 760 763 765 766 767 768 770 772 773 773 774 775 776 777 778 780 782 784 785 786 786 785 785 783 780 779 777 776 775 775 775 776 776 775 775 775 773 771 770 768 767
641 641 640 641 640 640 639 637 637 641 648 654 658 662 666 672 677 683 689 696 704 711 716 719 722 727 731 733 736 740 745 749 753 757 759 760 761 763 765 767 769 770 771 772 772 773 775 776 777 780 782 783 784 785 784 782 780 778 776 775 774 773 772 772 773 773 773 772 773 771 769 768 767 765
639 637 637 637 638 638 639 639 638 641 647 652 656 660 664 670 676 682 689 697 703 710 715 718 721 725 729 732 735 739 743 747 750 753 754 755 757 760 762 764 766 767 768 769 770 771 773 774 776 778 780 781 782 782 781 779 777 776 774 773 772 771 770 769 769 769 769 769 769 768 767 767 765 764
638 636 634 634 635 637 639 641 642 645 648 651 655 659 664 669 676 683 690 697 702 708 713 716 719 723 727 731 734 738 741 744 746 748 750 752 755 757 759 760 762 765 766 767 768 769 770 772 774 776 778 778 779 779 777 776 775 774 772 771 770 770 769 767 766 766 766 766 765 764 764 764 763 762
638 636 635 634 635 636 639 642 645 646 648 651 655 660 665 672 679 685 691 696 701 706 711 714 717 721 725 729 732 735 739 741 743 746 748 751 753 755 756 757 759 762 764 765 765 766 768 770 772 773 775 775 776 775 774 774 773 772 771 770 769 768 766 765 765 764 764 764 763 762 761 761 760 760